#timestamp,LO_Frequency,Hit,StdDev 
1610359215.4,286047002.3,N
1610359235.2,286047004.3,N
1610359255.1,286047003.2,N
1610359256.0,286047003.2,N
1610359275.8,286047005.5,Y
1610359295.7,286047001.8,P
1610359315.5,286047004.2,P
1610359335.3,286047002.1,N
1610359355.2,286046998.3,N
1610359375.0,286046997.3,N
1610359375.9,286046997.3,N
1610359395.8,286046995.6,N
1610359415.6,286046995.6,N
1610359435.4,286046996.6,N
1610359455.3,286046998.4,N
1610359475.1,286046998.6,N
1610359495.8,286046998.7,N
1610359515.7,286046998.5,N
1610359535.5,286046998.5,N
1610359555.4,286046998.4,N
1610359575.2,286047001.1,N
1610359595.0,286046999.0,N
1610359595.9,286046999.0,N
1610359615.8,286046998.1,N
1610359635.6,286047000.1,N
1610359655.5,286047001.0,N
1610359675.3,286047001.7,N
1610359695.1,286047002.3,N
1610359715.9,286047002.7,N
1610359735.7,286047002.6,N
1610359755.6,286047002.7,N
1610359775.4,286047001.6,N
1610359795.2,286047001.9,N
1610359815.1,286047002.3,N
1610359816.0,286047002.3,N
1610359835.8,286047002.8,N
1610359855.6,286047000.7,N
1610359875.5,286047000.7,N
1610359895.3,286046999.7,N
1610359915.2,286046999.7,N
1610359935.0,286047001.9,N
1610359935.9,286047001.9,N
1610359955.7,286047001.4,N
1610359975.6,286047002.3,N
1610359995.4,286047001.3,N
1610360015.3,286047001.5,N
1610360035.1,286047000.5,N
1610360055.8,286046998.6,N
1610360075.7,286046998.2,N
1610360095.5,286047001.0,N
1610360115.4,286046996.8,N
1610360135.2,286046999.3,N
1610360155.0,286046998.1,N
1610360155.9,286046998.1,N
1610360175.8,286047000.0,N
1610360195.6,286046999.9,N
1610360215.4,286047000.3,N
1610360235.3,286047002.0,N
1610360255.1,286047001.6,N
1610360275.9,286047002.3,N
1610360295.7,286047002.5,N
1610360315.5,286047000.0,N
1610360335.4,286047000.5,N
1610360355.2,286047000.6,N
1610360375.1,286047000.4,N
1610360376.0,286047000.4,N
1610360395.8,286047002.6,N
1610360415.6,286047001.9,N
1610360435.5,286047004.0,N
1610360455.3,286047006.0,Y
1610360475.1,286047002.5,P
1610360495.9,286047003.8,P
1610360515.7,286047002.0,N
1610360535.6,286046999.9,N
1610360555.4,286047000.1,N
1610360575.2,286047002.4,N
1610360595.1,286047002.7,N
1610360596.0,286047002.7,N
1610360615.8,286047000.4,N
1610360635.6,286047000.9,N
1610360655.5,286047000.6,N
1610360675.3,286046999.4,N
1610360695.2,286046998.5,N
1610360715.9,286046996.9,N
1610360735.7,286046999.1,N
1610360755.6,286046996.7,N
1610360775.4,286046998.9,N
1610360795.2,286047000.3,N
1610360815.1,286047000.9,N
1610360816.0,286047000.9,N
1610360835.8,286047000.1,N
1610360855.7,286047002.7,N
1610360875.5,286047001.4,N
1610360895.3,286047000.0,N
1610360915.2,286047000.5,N
1610360935.0,286047000.5,N
1610360935.9,286047000.5,N
1610360955.7,286047000.4,N
1610360975.6,286047002.4,N
1610360995.4,286047000.8,N
1610361015.3,286047000.6,N
1610361035.1,286046999.8,N
1610361036.0,286046999.8,N
1610361055.8,286046999.9,N
1610361075.7,286046999.8,N
1610361095.5,286047001.6,N
1610361115.3,286047001.4,N
1610361135.2,286047002.5,N
1610361155.0,286047001.7,N
1610361155.9,286047001.7,N
1610361175.8,286047002.5,N
1610361195.6,286047002.5,N
1610361215.4,286047002.2,N
1610361235.3,286047002.7,N
1610361255.1,286047001.6,N
1610361275.9,286047002.6,N
1610361295.7,286047003.9,Y
1610361315.5,286047000.1,P
1610361335.4,286046999.0,N
1610361355.2,286047000.6,N
1610361375.1,286046998.1,N
1610361376.0,286046998.1,N
1610361395.8,286046998.3,N
1610361415.6,286047000.9,N
1610361435.5,286046998.7,N
1610361455.3,286046999.0,N
1610361475.2,286046999.0,N
1610361495.0,286046998.2,N
1610361495.9,286046998.2,N
1610361515.8,286046998.9,N
1610361535.6,286046996.9,Y
1610361555.4,286046999.2,P
1610361575.3,286046997.3,P
1610361595.1,286046998.7,N
1610361615.9,286047000.7,N
1610361635.7,286047000.6,N
1610361655.5,286047000.7,N
1610361675.4,286046998.1,N
1610361695.2,286047000.9,N
1610361715.1,286047002.1,N
1610361716.0,286047002.1,N
1610361735.8,286047001.5,N
1610361755.6,286047002.5,N
1610361775.5,286047000.5,N
1610361795.3,286047000.9,N
1610361815.2,286047000.4,N
1610361835.9,286047002.7,N
1610361855.7,286047001.5,N
1610361875.6,286047000.0,N
1610361895.4,286046999.8,N
1610361915.3,286047002.8,N
1610361935.6,286047000.3,N
1610361955.4,286046999.8,N
1610361975.2,286047000.4,N
1610361995.1,286047000.2,N
1610361996.0,286047000.2,N
1610362015.8,286047001.6,N
1610362035.7,286047001.6,N
1610362055.5,286047004.0,Y
1610362075.3,286047002.0,P
1610362095.2,286046999.7,N
1610362115.0,286047002.5,N
1610362115.9,286047002.5,N
1610362135.8,286047000.0,N
1610362155.6,286046999.7,N
1610362175.4,286047001.6,N
1610362195.3,286046998.2,N
1610362215.1,286046999.1,N
1610362235.8,286046999.3,N
1610362255.7,286047001.2,N
1610362275.5,286046998.1,N
1610362295.4,286047000.5,N
1610362315.2,286047000.3,N
1610362335.0,286047003.5,N
1610362335.9,286047003.5,N
1610362355.8,286047003.7,N
1610362375.6,286047001.6,N
1610362395.4,286047003.9,N
1610362415.3,286047000.1,N
1610362435.1,286047004.4,N
1610362455.9,286047001.6,N
1610362475.7,286047001.9,N
1610362495.5,286047001.5,N
1610362515.4,286047002.1,N
1610362535.2,286046999.7,N
1610362555.1,286047002.3,N
1610362556.0,286047002.3,N
1610362575.8,286047004.1,N
1610362595.6,286046999.9,N
1610362615.5,286047000.1,N
1610362635.3,286047002.8,N
1610362655.2,286047002.5,N
1610362675.9,286047002.7,N
1610362695.7,286047002.4,N
1610362715.6,286047000.3,N
1610362735.4,286046998.2,N
1610362755.2,286046999.0,N
1610362775.1,286046998.6,N
1610362776.0,286046998.6,N
1610362795.8,286047001.2,N
